Weather History for Wellsville, NY

Change the Weather History Date:

Friday, January 17, 2014

  Actual Average (KBFD) Record (KBFD)
Temperature  
Mean Temperature 30 °F 21 °F  
Max Temperature 35 °F 29 °F 54 °F (1990)
Min Temperature 24 °F 13 °F -27 °F (1982)
Degree Days  
Heating Degree Days 36 38  
Month to date heating degree days 646  
Since 1 July heating degree days 3702  
Cooling Degree Days 0 0  
Month to date cooling degree days 0  
Year to date cooling degree days 0  
Moisture  
Dew Point 20 °F    
Average Humidity 71    
Maximum Humidity 93    
Minimum Humidity 54    
Precipitation  
Precipitation 0.02 in 0.10 in 1.09 in (1978)
Month to date precipitation 1.86  
Year to date precipitation 1.86  
Sea Level Pressure  
Sea Level Pressure 29.79 in    
Wind  
Wind Speed 8 mph (SSW)    
Max Wind Speed 16 mph    
Max Gust Speed 25 mph    
Visibility 8 miles    
Events Fog , Snow    
T = Trace of Precipitation, MM = Missing Value Source: NWS Daily Summary

Daily Weather History Graph

Daily Weather History Graph

Search for Another Location

Airport:

Trip Planner

Search our weather history database for the weather conditions in past years. The results will help you decide how hot, cold, wet, or windy it might be!

Date:

Astronomy

Jan. 17, 2014 Rise Set
Actual Time 7:36 AM EST 5:07 PM EST
Civil Twilight 7:06 AM EST 5:38 PM EST
Nautical Twilight 6:31 AM EST 6:12 PM EST
Astronomical Twilight 5:58 AM EST 6:46 PM EST
Moon 6:55 PM EST (1/17) 8:01 AM EST (1/17)
Length of Visible Light 10h 32m
Length of Day
9h 30m
Full, 98% of the Moon is Illuminated
Jan 17
Full
Jan 24
Last Quarter
Jan 30
New
Feb 6
First Quarter
Feb 14
Full

Hourly Weather History & Observations

Time (EST) Temp. Windchill Dew Point Humidity Pressure Visibility Wind Dir Wind Speed Gust Speed Precip Events Conditions
12:56 AM 25.0 °F 17.1 °F 16.0 °F 69% 29.82 in 9.0 mi Variable 6.9 mph 16.1 mph 0.00 in Snow Light Snow
1:56 AM 26.1 °F 19.4 °F 15.1 °F 63% 29.81 in 10.0 mi South 5.8 mph - 0.00 in   Overcast
2:56 AM 27.0 °F 20.5 °F 14.0 °F 58% 29.79 in 10.0 mi Variable 5.8 mph - N/A   Overcast
3:56 AM 27.0 °F 21.6 °F 15.1 °F 61% 29.79 in 10.0 mi Variable 4.6 mph - N/A   Overcast
4:07 AM 26.6 °F 19.1 °F 17.6 °F 69% 29.71 in 5.0 mi Variable 6.9 mph - 0.00 in Snow Light Snow
4:16 AM 26.6 °F 16.8 °F 17.6 °F 69% 29.71 in 8.0 mi SW 10.4 mph 18.4 mph 0.00 in Snow Light Snow
4:47 AM 26.6 °F 19.1 °F 19.4 °F 74% 29.71 in 2.5 mi South 6.9 mph - 0.00 in Snow Light Snow
4:56 AM 25.0 °F 18.1 °F 19.9 °F 81% 29.79 in 1.8 mi South 5.8 mph - 0.00 in Snow Light Snow
5:23 AM 24.8 °F 15.3 °F 21.2 °F 86% 29.71 in 2.5 mi South 9.2 mph - 0.00 in Snow Light Snow
5:32 AM 24.8 °F 14.0 °F 21.2 °F 86% 29.71 in 3.0 mi South 11.5 mph - 0.00 in Snow Light Snow
5:56 AM 26.1 °F 16.2 °F 19.9 °F 78% 29.80 in 10.0 mi South 10.4 mph 19.6 mph 0.00 in   Mostly Cloudy
6:39 AM 26.6 °F 15.7 °F 21.2 °F 80% 29.72 in 10.0 mi SW 12.7 mph - N/A   Overcast
6:56 AM 27.0 °F 16.1 °F 21.0 °F 78% 29.80 in 10.0 mi SW 12.7 mph 24.2 mph N/A   Overcast
8:16 AM 28.4 °F 18.5 °F 21.2 °F 74% 29.75 in 10.0 mi SW 11.5 mph 19.6 mph N/A   Overcast
8:56 AM 28.9 °F 18.2 °F 19.9 °F 69% 29.83 in 10.0 mi SW 13.8 mph 20.7 mph N/A   Mostly Cloudy
9:04 AM 28.4 °F 18.5 °F 19.4 °F 69% 29.76 in 10.0 mi SW 11.5 mph 20.7 mph N/A   Scattered Clouds
9:56 AM 30.9 °F 21.2 °F 19.9 °F 64% 29.85 in 10.0 mi SW 12.7 mph 23.0 mph N/A   Scattered Clouds
10:03 AM 30.2 °F 20.2 °F 19.4 °F 64% 29.78 in 10.0 mi SW 12.7 mph 21.9 mph N/A   Mostly Cloudy
10:56 AM 30.9 °F 21.7 °F 19.9 °F 64% 29.85 in 10.0 mi SW 11.5 mph 25.3 mph N/A   Mostly Cloudy
11:42 AM 30.2 °F 21.9 °F 19.4 °F 64% 29.78 in 10.0 mi WSW 9.2 mph 18.4 mph N/A   Overcast
11:56 AM 32.0 °F 21.6 °F 21.0 °F 64% 29.84 in 10.0 mi WSW 15.0 mph 23.0 mph N/A   Mostly Cloudy
12:15 PM 32.0 °F 21.2 °F 19.4 °F 60% 29.76 in 10.0 mi SW 16.1 mph 21.9 mph N/A   Mostly Cloudy
12:56 PM 32.0 °F 24.2 °F 19.9 °F 61% 29.83 in 10.0 mi SW 9.2 mph 21.9 mph N/A   Overcast
1:08 PM 33.8 °F 25.8 °F 21.2 °F 60% 29.76 in 10.0 mi SSW 10.4 mph 16.1 mph N/A   Overcast
1:56 PM 35.1 °F 27.9 °F 19.9 °F 54% 29.82 in 10.0 mi WSW 9.2 mph 17.3 mph N/A   Mostly Cloudy
2:56 PM 34.0 °F 26.6 °F 19.0 °F 54% 29.82 in 10.0 mi WSW 9.2 mph - N/A   Overcast
3:56 PM 33.1 °F 26.9 °F 19.9 °F 59% 29.84 in 10.0 mi SW 6.9 mph - N/A   Overcast
4:56 PM 33.1 °F 30.0 °F 19.0 °F 56% 29.85 in 10.0 mi SSW 3.5 mph - N/A   Mostly Cloudy
5:56 PM 32.0 °F 27.5 °F 19.0 °F 59% 29.86 in 10.0 mi South 4.6 mph - N/A   Scattered Clouds
6:56 PM 30.9 °F 23.5 °F 19.9 °F 64% 29.85 in 10.0 mi SSE 8.1 mph - N/A   Clear
7:56 PM 30.0 °F 22.4 °F 21.9 °F 72% 29.85 in 10.0 mi South 8.1 mph - N/A   Clear
8:38 PM 30.2 °F 22.6 °F 23.0 °F 75% 29.78 in 10.0 mi South 8.1 mph - N/A   Mostly Cloudy
8:56 PM 28.9 °F 20.4 °F 23.0 °F 78% 29.84 in 10.0 mi South 9.2 mph - N/A   Mostly Cloudy
9:03 PM 28.4 °F 19.7 °F 23.0 °F 80% 29.77 in 10.0 mi South 9.2 mph - N/A   Scattered Clouds
9:56 PM 28.9 °F 23.9 °F 23.0 °F 78% 29.84 in 10.0 mi South 4.6 mph - N/A   Overcast
10:56 PM 30.0 °F 25.2 °F 24.1 °F 79% 29.83 in 2.5 mi South 4.6 mph - 0.00 in Snow Light Snow
11:07 PM 28.4 °F 23.3 °F 24.8 °F 86% 29.76 in 1.5 mi South 4.6 mph - 0.00 in Snow Light Snow
11:14 PM 28.4 °F 23.3 °F 24.8 °F 86% 29.76 in 1.8 mi SSE 4.6 mph - 0.00 in Snow Light Snow
11:29 PM 28.4 °F 22.2 °F 26.6 °F 93% 29.76 in 2.0 mi South 5.8 mph - 0.00 in Snow Light Snow
11:56 PM 28.9 °F - 26.1 °F 89% 29.81 in 0.5 mi Calm Calm - 0.02 in Fog , Snow Snow